Hourly Data Report for October 18, 2013

All times are specified in Local Standard Time (LST). Add 1 hour to adjust for Daylight Saving Time where and when it is observed.

QIKIQTARJUAQ A
NUNAVUT

67°32'48.000" N
64°01'54.000" W
5.50 m
2400577
YVM

Download Data

Hourly Data (October 2013)
Hourly Data Report for October 18, 2013
Temp Definition
°C
Dew Point Temp Definition
°C
Rel Hum Definition
%
Wind Dir Definition
10's deg

Wind Spd Definition
km/h
Visibility Definition
km
Stn Press Definition
kPa
Hmdx Definition


Wind Chill Definition


Weather Definition


TIME
00:00 Legend Double Dagger -1.3 -2.5 92 19 4 16.1 101.43   -3 LegendNANA
01:00 Legend Double Dagger -2.3 -4.2 87 21 11 16.1 101.42   -6 LegendNANA
02:00
03:00 Legend Double Dagger -2.4 -5.7 78 19 22 16.1 101.43   -9 LegendNANA
04:00 Legend Double Dagger -2.8 -6.5 76 20 22 16.1 101.39   -9 LegendNANA
05:00 Legend Double Dagger -2.3 -6.0 76 19 24 16.1 101.37   -9 LegendNANA
06:00 Legend Double Dagger -3.4 -7.6 73 19 5 16.1 101.38   -5 LegendNANA
07:00 Legend Double Dagger -2.2 -7.0 70 22 15 16.1 101.40   -7 LegendNANA
08:00 Legend Double Dagger -2.0 -6.2 73 20 21 16.1 101.36   -8 LegendNANA
09:00 Legend Double Dagger -1.4 -5.3 75 19 17 16.1 101.32   -7 LegendNANA
10:00 Legend Double Dagger -1.1 -4.5 78 22 22 16.1 101.30   -7 LegendNANA
11:00 Legend Double Dagger -0.5 -4.9 72 22 24 16.1 101.24   -6 LegendNANA
12:00 Legend Double Dagger -0.3 -4.5 74 19 22 16.1 101.23   -6 LegendNANA
13:00 Legend Double Dagger 0.5 -4.2 71 20 35 16.1 101.15     LegendNANA
14:00 Legend Double Dagger 0.6 -3.5 74 21 30 16.1 101.18     LegendNANA
15:00 Legend Double Dagger -0.5 -4.8 73 20 33 16.1 101.20   -7 LegendNANA
16:00 Legend Double Dagger 1.8 -4.1 65 20 33 16.1 101.22     LegendNANA
17:00 Legend Double Dagger 3.7 -3.7 59 18 26 16.1 101.24     LegendNANA
18:00 Legend Double Dagger 2.5 -3.9 63 LegendMM 4 16.1 101.29     LegendNANA
19:00 Legend Double Dagger -1.0 -2.5 90 8 8 16.1 101.38   -4 LegendNANA
20:00 Legend Double Dagger -1.9 -5.2 78 8 8 16.1 101.41   -5 LegendNANA
21:00 Legend Double Dagger -2.2 -5.5 78   0 16.1 101.44     LegendNANA
22:00 Legend Double Dagger -1.5 -4.1 83 LegendMM 4 16.1 101.45   -3 LegendNANA
23:00 Legend Double Dagger -2.2 -4.6 83   0 16.1 101.48     LegendNANA

Notes on Data Quality.

Legend

  • E = Estimated
  • M = Missing
  • NA = Not Available
  • ‡ = Partner data that is not subject to review by the National Climate Archives
Date modified: